Previsão horária em Alisovo

Hoje, 26 Janeiro, Terça-feira

Tempo Temperatura Precipitação Vento Pressão Humidade
00:00 -3°C° 0 mm 7 m/s 738 mmHg 95%
01:00 -3°C° 0 mm 7 m/s 737 mmHg 94%
02:00 -4°C° 0 mm 8 m/s 736 mmHg 93%
03:00 -4°C° 0 mm 8 m/s 736 mmHg 91%
04:00 -4°C° 0 mm 8 m/s 735 mmHg 89%
05:00 -4°C° 0 mm 8 m/s 735 mmHg 87%
06:00 -4°C° 0.2 mm 9 m/s 734 mmHg 89%
07:00 -4°C° 0.2 mm 9 m/s 733 mmHg 92%
08:00 -4°C° 0.2 mm 9 m/s 733 mmHg 95%
09:00 -3°C° 0.4 mm 9 m/s 733 mmHg 96%
10:00 -2°C° 0.4 mm 8 m/s 733 mmHg 98%
11:00 -2°C° 0.4 mm 7 m/s 733 mmHg 99%
12:00 -2°C° 0.1 mm 8 m/s 733 mmHg 97%
13:00 -2°C° 0.1 mm 8 m/s 734 mmHg 94%
14:00 -2°C° 0.1 mm 8 m/s 734 mmHg 91%
15:00 -2°C° 0 mm 8 m/s 734 mmHg 88%
16:00 -2°C° 0 mm 7 m/s 735 mmHg 86%
17:00 -2°C° 0 mm 7 m/s 736 mmHg 83%
18:00 -2°C° 0 mm 7 m/s 736 mmHg 84%
19:00 -3°C° 0 mm 7 m/s 736 mmHg 85%
20:00 -3°C° 0 mm 7 m/s 736 mmHg 86%
21:00 -3°C° 0.3 mm 7 m/s 736 mmHg 89%
22:00 -3°C° 0.3 mm 6 m/s 736 mmHg 92%
23:00 -3°C° 0.3 mm 6 m/s 736 mmHg 95%

Amanhã, 27 Janeiro, Quarta-feira

Tempo Temperatura Precipitação Vento Pressão Humidade
00:00 -3°C° 0.2 mm 6 m/s 736 mmHg 94%
01:00 -3°C° 0.2 mm 6 m/s 736 mmHg 93%
02:00 -2°C° 0.2 mm 5 m/s 736 mmHg 92%
03:00 -4°C° 0 mm 5 m/s 736 mmHg 91%
04:00 -4°C° 0 mm 5 m/s 736 mmHg 91%
05:00 -4°C° 0 mm 5 m/s 736 mmHg 90%
06:00 -5°C° 0 mm 5 m/s 736 mmHg 90%
07:00 -5°C° 0 mm 5 m/s 736 mmHg 90%
08:00 -4°C° 0 mm 4 m/s 737 mmHg 90%
09:00 -4°C° 0 mm 4 m/s 737 mmHg 91%
10:00 -4°C° 0 mm 3 m/s 737 mmHg 91%
11:00 -2°C° 0 mm 3 m/s 738 mmHg 91%
12:00 -2°C° 0 mm 2 m/s 737 mmHg 91%
13:00 -2°C° 0 mm 2 m/s 737 mmHg 92%
14:00 0°C° 0 mm 1 m/s 737 mmHg 93%
15:00 0°C° 0 mm 1 m/s 737 mmHg 92%
16:00 0°C° 0 mm 1 m/s 737 mmHg 92%
17:00 -1°C° 0 mm 1 m/s 737 mmHg 92%
18:00 0°C° 0 mm 1 m/s 737 mmHg 92%
19:00 0°C° 0 mm 1 m/s 737 mmHg 91%
20:00 -2°C° 0 mm 2 m/s 737 mmHg 91%
21:00 -2°C° 0.3 mm 2 m/s 737 mmHg 93%
22:00 -2°C° 0.3 mm 2 m/s 737 mmHg 94%
23:00 -1°C° 0.3 mm 3 m/s 737 mmHg 96%

Depois de amanhã, 28 Janeiro, Quinta-feira

Tempo Temperatura Precipitação Vento Pressão Humidade
00:00 -1°C° 0.6 mm 3 m/s 737 mmHg 97%
01:00 0°C° 0.6 mm 3 m/s 737 mmHg 98%
02:00 0°C° 0.6 mm 3 m/s 736 mmHg 99%
03:00 -1°C° 0 mm 4 m/s 736 mmHg 98%
04:00 -1°C° 0 mm 4 m/s 736 mmHg 97%
05:00 -1°C° 0 mm 4 m/s 735 mmHg 96%
06:00 -1°C° 0 mm 5 m/s 735 mmHg 96%
07:00 -2°C° 0 mm 5 m/s 735 mmHg 95%
08:00 -2°C° 0 mm 5 m/s 735 mmHg 95%
09:00 -2°C° 0 mm 5 m/s 735 mmHg 96%
10:00 -1°C° 0 mm 5 m/s 735 mmHg 97%
11:00 -1°C° 0 mm 5 m/s 735 mmHg 98%
12:00 -1°C° 0.2 mm 5 m/s 734 mmHg 98%
13:00 -1°C° 0.2 mm 5 m/s 734 mmHg 98%
14:00 -1°C° 0.2 mm 5 m/s 734 mmHg 98%
15:00 -1°C° 0.1 mm 5 m/s 734 mmHg 97%
16:00 -2°C° 0.1 mm 6 m/s 734 mmHg 97%
17:00 -2°C° 0.1 mm 6 m/s 734 mmHg 96%
18:00 -1°C° 0 mm 5 m/s 734 mmHg 96%
19:00 -1°C° 0 mm 5 m/s 734 mmHg 96%
20:00 -1°C° 0 mm 5 m/s 734 mmHg 96%
21:00 -1°C° 0.1 mm 5 m/s 734 mmHg 97%
22:00 -1°C° 0.1 mm 4 m/s 734 mmHg 97%
23:00 -1°C° 0.1 mm 4 m/s 734 mmHg 97%

29 Janeiro, Sexta-feira

Tempo Temperatura Precipitação Vento Pressão Humidade
00:00 -1°C° 0 mm 4 m/s 734 mmHg 97%
01:00 0°C° 0 mm 3 m/s 733 mmHg 97%
02:00 0°C° 0 mm 3 m/s 733 mmHg 97%
03:00 -1°C° 0 mm 3 m/s 733 mmHg 95%
04:00 -1°C° 0 mm 3 m/s 733 mmHg 93%
05:00 -2°C° 0 mm 3 m/s 732 mmHg 92%
06:00 -2°C° 0 mm 3 m/s 732 mmHg 91%
07:00 -2°C° 0 mm 3 m/s 732 mmHg 90%
08:00 -2°C° 0 mm 3 m/s 731 mmHg 90%
09:00 -3°C° 0 mm 4 m/s 731 mmHg 89%
10:00 -3°C° 0 mm 4 m/s 730 mmHg 88%
11:00 -2°C° 0 mm 4 m/s 730 mmHg 88%
12:00 -2°C° 0 mm 5 m/s 729 mmHg 88%
13:00 -2°C° 0 mm 5 m/s 728 mmHg 88%
14:00 -2°C° 0 mm 5 m/s 728 mmHg 89%
15:00 -4°C° 0.1 mm 5 m/s 728 mmHg 91%
16:00 -4°C° 0.1 mm 6 m/s 727 mmHg 93%
17:00 -4°C° 0.1 mm 6 m/s 727 mmHg 95%
18:00 -5°C° 0.2 mm 6 m/s 727 mmHg 93%
19:00 -6°C° 0.2 mm 7 m/s 727 mmHg 91%
20:00 -7°C° 0.2 mm 7 m/s 727 mmHg 89%
21:00 -6°C° 0 mm 6 m/s 727 mmHg 88%
22:00 -7°C° 0 mm 5 m/s 727 mmHg 87%
23:00 -8°C° 0 mm 5 m/s 727 mmHg 86%

30 Janeiro, Sábado

Tempo Temperatura Precipitação Vento Pressão Humidade
00:00 -8°C° 0 mm 4 m/s 727 mmHg 87%
01:00 -8°C° 0 mm 4 m/s 727 mmHg 89%
02:00 -8°C° 0 mm 4 m/s 727 mmHg 90%
03:00 -8°C° 0 mm 4 m/s 727 mmHg 91%
04:00 -8°C° 0 mm 4 m/s 726 mmHg 92%
05:00 -8°C° 0 mm 4 m/s 726 mmHg 93%
06:00 -7°C° 0.1 mm 5 m/s 726 mmHg 93%
07:00 -7°C° 0.1 mm 5 m/s 726 mmHg 93%
08:00 -7°C° 0.1 mm 5 m/s 727 mmHg 92%
09:00 -7°C° 0 mm 5 m/s 727 mmHg 91%
10:00 -8°C° 0 mm 6 m/s 727 mmHg 89%
11:00 -8°C° 0 mm 6 m/s 728 mmHg 88%
12:00 -8°C° 0 mm 6 m/s 728 mmHg 87%
13:00 -7°C° 0 mm 5 m/s 728 mmHg 86%
14:00 -6°C° 0 mm 5 m/s 728 mmHg 86%
15:00 -7°C° 0 mm 5 m/s 728 mmHg 87%
16:00 -7°C° 0 mm 4 m/s 729 mmHg 89%
17:00 -7°C° 0 mm 4 m/s 729 mmHg 90%
18:00 -7°C° 0 mm 4 m/s 729 mmHg 91%
19:00 -8°C° 0 mm 4 m/s 729 mmHg 91%
20:00 -7°C° 0 mm 3 m/s 729 mmHg 92%
21:00 -7°C° 0 mm 3 m/s 729 mmHg 92%
22:00 -8°C° 0 mm 3 m/s 730 mmHg 92%
23:00 -8°C° 0 mm 3 m/s 730 mmHg 93%

31 Janeiro, Domingo

Tempo Temperatura Precipitação Vento Pressão Humidade
00:00 -8°C° 0 mm 3 m/s 730 mmHg 93%
01:00 -9°C° 0 mm 4 m/s 730 mmHg 93%
02:00 -9°C° 0 mm 4 m/s 730 mmHg 93%
03:00 -9°C° 0 mm 4 m/s 730 mmHg 94%
04:00 -8°C° 0 mm 3 m/s 730 mmHg 94%
05:00 -9°C° 0 mm 3 m/s 730 mmHg 95%
06:00 -9°C° 0 mm 3 m/s 730 mmHg 95%
07:00 -9°C° 0 mm 3 m/s 731 mmHg 95%
08:00 -9°C° 0 mm 3 m/s 731 mmHg 95%
09:00 -9°C° 0 mm 4 m/s 732 mmHg 93%
10:00 -9°C° 0 mm 4 m/s 732 mmHg 91%
11:00 -8°C° 0 mm 4 m/s 732 mmHg 89%
12:00 -8°C° 0 mm 5 m/s 732 mmHg 88%
13:00 -8°C° 0 mm 5 m/s 732 mmHg 87%
14:00 -8°C° 0 mm 5 m/s 733 mmHg 86%
15:00 -8°C° 0 mm 5 m/s 733 mmHg 86%
16:00 -10°C° 0 mm 5 m/s 733 mmHg 87%
17:00 -10°C° 0 mm 5 m/s 733 mmHg 88%
18:00 -10°C° 0 mm 5 m/s 733 mmHg 88%
19:00 -10°C° 0 mm 6 m/s 733 mmHg 89%
20:00 -9°C° 0 mm 6 m/s 734 mmHg 89%
21:00 -9°C° 0 mm 6 m/s 734 mmHg 89%
22:00 -10°C° 0 mm 6 m/s 734 mmHg 89%
23:00 -10°C° 0 mm 5 m/s 734 mmHg 89%
Mostrar mais

Necessitamos do seu Consentimento

A Meteoprog e os seus Fornecedores de Serviços podem armazenar e aceder a dados pessoais como cookies, identificadores do dispositivo ou outras tecnologias semelhantes existentes no seu dispositivo e processar estes dados para personalizar conteúdos e anúncios, assim como funcionalidades nas redes sociais e análise de tráfego.

  • Armazenar e/ou aceder a informações no seu dispositivo

    Os cookies, identificadores do dispositivo ou outras informações podem ser armazenados ou acedidos no seu dispositivo, para os fins acima indicados.

  • Anúncios e conteúdos personalizados, medição de anúncios e conteúdos, dados sobre o público-alvo e desenvolvimento de produtos

    Os anúncios e os conteúdos podem ser personalizados com base num perfil. Podem ser adicionados dados adicionais para uma maior personalização dos anúncios e dos conteúdos. A eficácia dos anúncios e dos conteúdos pode ser medida. Podem ser obtidas informações sobre o público que visualizou os anúncios e os conteúdos. Estes dados podem ser usados para desenvolver ou melhorar sistemas, softwares ou a experiência do utilizador.

Ao clicar em "Eu concordo”, permitirá o uso de cookies, identificadores do dispositivo e web beacons mencionados ou outras tecnologias semelhantes. As configurações do navegador do seu dispositivo podem ser alteradas.

Para certos fins, podem ser invocados interesses legítimos ao invés de consentimento. Pode ler mais informação sobre este assunto na nossa Política de Privacidade e Cookies.